User: anonymous   Login
Location: Unspecified
(0.0000°N, 0.0000°E)
Time: 23:22:42
(UTC+00:00)
Language:

CUSAT 1 - Orbit

View from above orbital plane
View from above orbital plane
View from above satellite
View from above satellite

Ground track
Ground track

The orbit data is extracted from the following two-line orbital elements,

1 39266U 13055B   18051.22340190  .00005088  00000-0  14244-3 0  9995
2 39266  80.9856 109.6612 0652578 223.1641 131.6610 14.31345052227457
Epoch (UTC): 20 February 2018 05:21:41
Eccentricity: 0.0652578
inclination: 80.9856°
perigee height: 319 km
apogee height: 1255 km
right ascension of ascending node: 109.6612°
argument of perigee: 223.1641°
revolutions per day: 14.31345052
mean anomaly at epoch: 131.6610°
orbit number at epoch: 22745

The dashed part of the orbit path shows where the satellite is in the earth's shadow,  

DLR